Weather History for Mt. Pocono, PA

Change the Weather History Date:

Thursday, June 27, 2013

  Actual Average Record
Temperature  
Mean Temperature 71 °F 67 °F  
Max Temperature 81 °F 77 °F 88 °F (1966)
Min Temperature 60 °F 57 °F 38 °F (1940)
Degree Days  
Heating Degree Days 0 1  
Month to date heating degree days 76 95  
Since 1 June heating degree days 76 95  
Since 1 July heating degree days 6828 7111  
Cooling Degree Days 6 3  
Month to date cooling degree days 67 52  
Year to date cooling degree days 99 71  
Since 1 June cooling degree days 67 52  
Growing Degree Days 20 (Base 50)    
Moisture  
Dew Point 64 °F    
Average Humidity 76    
Maximum Humidity 97    
Minimum Humidity 54    
Precipitation  
Precipitation 1.69 in 0.12 in 3.14 in (2006)
Month to date precipitation 8.80 4.00  
Year to date precipitation 22.81 21.50  
Sea Level Pressure  
Sea Level Pressure 29.71 in    
Wind  
Wind Speed 6 mph (East)    
Max Wind Speed 22 mph    
Max Gust Speed 28 mph    
Visibility 5 miles    
Events Fog , Rain    
T = Trace of Precipitation, MM = Missing Value Source: NWS Daily Summary

Daily Weather History Graph

Daily Weather History Graph

Search for Another Location

Airport:

Trip Planner

Search our weather history database for the weather conditions in past years. The results will help you decide how hot, cold, wet, or windy it might be!

Date:

Astronomy

Jun. 27, 2013 Rise Set
Actual Time 5:30 AM EDT 8:38 PM EDT
Civil Twilight 4:57 AM EDT 9:11 PM EDT
Nautical Twilight 4:14 AM EDT 9:54 PM EDT
Astronomical Twilight 3:22 AM EDT 10:46 PM EDT
Moon 11:30 PM EDT (6/27) 10:32 AM EDT (6/27)
Length of Visible Light 16h 14m
Length of Day
15h 07m
Waning Gibbous, 76% of the Moon is Illuminated
Jun 27
Waning Gibbous
Jun 30
Last Quarter
Jul 8
New
Jul 15
First Quarter
Jul 22
Full

Hourly Weather History & Observations

Time (EDT) Temp. Heat Index Dew Point Humidity Pressure Visibility Wind Dir Wind Speed Gust Speed Precip Events Conditions
12:53 AM 63.0 °F - 61.0 °F 93% 29.86 in 6.0 mi Calm Calm - N/A   Clear
1:53 AM 62.1 °F - 60.1 °F 93% 29.85 in 4.0 mi North 3.5 mph - 0.01 in   Clear
2:53 AM 61.0 °F - 59.0 °F 93% 29.84 in 4.0 mi NNW 3.5 mph - N/A   Clear
3:53 AM 62.1 °F - 60.1 °F 93% 29.82 in 4.0 mi Calm Calm - N/A   Clear
4:53 AM 61.0 °F - 59.0 °F 93% 29.84 in 2.5 mi Calm Calm - N/A   Clear
5:09 AM 60.8 °F - 59.0 °F 94% 29.86 in 3.0 mi Calm Calm - N/A   Clear
5:27 AM 60.8 °F - 57.2 °F 88% 29.87 in 2.5 mi Calm Calm - N/A   Clear
5:37 AM 60.8 °F - 59.0 °F 94% 29.87 in 3.0 mi Calm Calm - N/A   Clear
5:50 AM 60.8 °F - 57.2 °F 88% 29.87 in 2.5 mi North 3.5 mph - N/A   Clear
5:53 AM 60.1 °F - 57.9 °F 93% 29.84 in 2.5 mi Calm Calm - N/A   Clear
6:11 AM 60.8 °F - 59.0 °F 94% 29.87 in 3.0 mi Calm Calm - N/A   Clear
6:24 AM 62.6 °F - 60.8 °F 94% 29.87 in 2.5 mi Calm Calm - N/A   Clear
6:32 AM 62.6 °F - 60.8 °F 94% 29.87 in 4.0 mi Calm Calm - N/A   Clear
6:53 AM 64.0 °F - 61.0 °F 90% 29.84 in 5.0 mi Calm Calm - N/A   Clear
7:53 AM 72.0 °F - 66.0 °F 81% 29.83 in 10.0 mi Calm Calm - N/A   Clear
8:53 AM 73.9 °F - 64.0 °F 71% 29.82 in 10.0 mi East 5.8 mph - N/A   Clear
9:53 AM 75.0 °F - 64.9 °F 71% 29.81 in 10.0 mi ESE 5.8 mph - N/A   Clear
10:53 AM 77.0 °F - 64.9 °F 66% 29.80 in - SE 6.9 mph - N/A   Partly Cloudy
11:53 AM 78.1 °F - 64.0 °F 62% 29.80 in 10.0 mi South 8.1 mph - N/A   Scattered Clouds
12:53 PM 77.0 °F - 63.0 °F 62% 29.79 in 10.0 mi SSE 8.1 mph - N/A   Mostly Cloudy
1:53 PM 79.0 °F - 64.9 °F 62% 29.76 in 10.0 mi SE 9.2 mph - N/A   Scattered Clouds
2:53 PM 80.1 °F 81.5 °F 63.0 °F 56% 29.75 in 10.0 mi SE 8.1 mph - N/A   Clear
3:53 PM 78.1 °F - 64.0 °F 62% 29.73 in 10.0 mi SE 9.2 mph - N/A   Scattered Clouds
4:53 PM 78.1 °F - 64.0 °F 62% 29.70 in 10.0 mi ESE 6.9 mph - N/A   Scattered Clouds
5:53 PM 77.0 °F - 66.0 °F 69% 29.67 in 10.0 mi ESE 6.9 mph - N/A   Clear
6:04 PM 75.2 °F - 66.2 °F 73% 29.70 in 9.0 mi ESE 6.9 mph - N/A   Partly Cloudy
6:53 PM 73.0 °F - 68.0 °F 84% 29.65 in 8.0 mi East 6.9 mph - 0.01 in   Overcast
7:20 PM 71.6 °F - 69.8 °F 94% 29.67 in 1.8 mi East 20.7 mph 27.6 mph 0.16 in Rain Heavy Rain
7:27 PM 68.0 °F - 66.2 °F 94% 29.68 in 1.2 mi East 15.0 mph 27.6 mph 0.32 in Rain Heavy Rain
7:32 PM 68.0 °F - 66.2 °F 94% 29.67 in 2.0 mi East 12.7 mph 25.3 mph 0.34 in Rain Rain
7:39 PM 66.2 °F - 66.2 °F 100% 29.67 in 4.0 mi East 15.0 mph - 0.35 in Rain Rain
7:49 PM 66.2 °F - 64.4 °F 94% 29.67 in 4.0 mi East 9.2 mph - 0.39 in Rain Rain
7:53 PM 66.9 °F - 64.9 °F 93% 29.63 in 4.0 mi East 9.2 mph - 0.41 in Rain Rain
8:03 PM 66.2 °F - 64.4 °F 94% 29.65 in 4.0 mi East 9.2 mph - 0.04 in Rain Rain
8:10 PM 68.0 °F - 64.4 °F 88% 29.65 in 4.0 mi East 9.2 mph - 0.06 in Rain Rain
8:38 PM 68.0 °F - 66.2 °F 94% 29.62 in 2.5 mi East 10.4 mph 18.4 mph 0.14 in Rain Light Rain
8:46 PM 68.0 °F - 66.2 °F 94% 29.61 in 3.0 mi East 11.5 mph 23.0 mph 0.14 in Rain Light Rain
8:53 PM 68.0 °F - 66.0 °F 93% 29.57 in 2.5 mi East 16.1 mph 26.5 mph 0.15 in Rain Light Rain
8:57 PM 68.0 °F - 66.2 °F 94% 29.61 in 0.8 mi East 17.3 mph 26.5 mph 0.00 in Rain Light Rain
9:16 PM 68.0 °F - 66.2 °F 94% 29.60 in 2.0 mi ESE 10.4 mph 21.9 mph 0.04 in Rain Rain
9:31 PM 68.0 °F - 66.2 °F 94% 29.59 in 1.2 mi East 10.4 mph 18.4 mph 0.28 in Rain Heavy Rain
9:43 PM 68.0 °F - 66.2 °F 94% 29.59 in 0.2 mi East 10.4 mph 24.2 mph 0.28 in Fog , Rain Light Rain
9:53 PM 68.0 °F - 66.9 °F 96% 29.54 in 0.2 mi ESE 6.9 mph - 0.33 in Fog , Rain Rain
10:02 PM 68.0 °F - 66.2 °F 94% 29.58 in 1.0 mi Variable 3.5 mph - 0.12 in Rain Heavy Rain
10:19 PM 68.0 °F - 66.2 °F 94% 29.57 in 0.2 mi ESE 9.2 mph - 0.70 in Fog , Rain Heavy Rain
10:25 PM 68.0 °F - 66.2 °F 94% 29.56 in 1.0 mi Calm Calm - 0.75 in Rain Heavy Rain
10:30 PM 68.0 °F - 66.2 °F 94% 29.56 in 2.0 mi NW 5.8 mph - 0.76 in Rain Rain
10:39 PM 68.0 °F - 66.2 °F 94% 29.56 in 4.0 mi NNE 4.6 mph - 0.77 in Rain Light Rain
10:53 PM 68.0 °F - 66.0 °F 93% 29.52 in 10.0 mi West 9.2 mph - 0.77 in Rain Light Rain
11:06 PM 68.0 °F - 66.2 °F 94% 29.56 in 10.0 mi West 11.5 mph - 0.01 in Rain Light Rain
11:36 PM 66.2 °F - 64.4 °F 94% 29.57 in 10.0 mi WSW 15.0 mph 21.9 mph 0.01 in   Mostly Cloudy
11:50 PM 66.2 °F - 64.4 °F 94% 29.57 in 10.0 mi West 12.7 mph - 0.01 in   Overcast
11:53 PM 66.9 °F - 64.9 °F 93% 29.53 in 10.0 mi West 11.5 mph - 0.01 in   Overcast